Location: Vale
(35.4830°N, 81.3830°W)
Time: 06:21:33
(UTC-04:00)

SR - All Passes

Search period start: 21 October 2014 00:00
Search period end: 31 October 2014 00:00
Orbit: 576 x 889 km, 66.7° (Epoch: 19 October)

Date Brightness Start Highest point End Pass type
(mag) Time Alt. Az. Time Alt. Az. Time Alt. Az.
21 Oct - 01:25:55 10° NNW 01:31:15 74° WSW 01:36:03 10° SSE night (unlit)
21 Oct - 14:12:19 10° SSE 14:16:13 19° ESE 14:20:10 10° ENE daylight
21 Oct - 15:52:06 10° SW 15:57:53 60° WNW 16:03:48 10° NNE daylight
21 Oct - 17:40:12 10° NW 17:41:18 11° NW 17:42:24 10° NNW daylight
22 Oct - 00:37:39 10° NNW 00:42:54 53° ENE 00:47:39 10° SE night (unlit)
22 Oct - 02:21:29 10° WNW 02:24:25 15° WSW 02:27:13 10° SW night (unlit)
22 Oct - 15:03:43 10° SSW 15:09:32 73° ESE 15:15:30 10° NNE daylight
22 Oct - 16:48:17 10° W 16:52:20 19° NW 16:56:25 10° N daylight
22 Oct - 23:49:46 10° N 23:54:19 27° NE 23:58:31 10° ESE night (unlit)
23 Oct - 01:31:50 10° NW 01:36:30 33° WSW 01:40:47 10° S night (unlit)
23 Oct - 14:16:03 10° S 14:21:21 37° ESE 14:26:47 10° NE daylight
23 Oct - 15:58:21 10° WSW 16:03:35 32° NW 16:08:54 10° N daylight
23 Oct - 23:02:29 10° NNE 23:05:30 15° NE 23:08:24 10° E night (unlit)
24 Oct - 00:43:05 10° NNW 00:48:23 73° WSW 00:53:09 10° SSE night (unlit)
24 Oct - 13:29:23 10° SSE 13:33:21 19° ESE 13:37:22 10° ENE daylight
24 Oct - 15:09:15 10° SW 15:15:02 59° WNW 15:20:56 10° NNE daylight
24 Oct - 16:57:36 10° NW 16:58:28 10° NW 16:59:19 10° NNW daylight
24 Oct - 23:54:48 10° NNW 00:00:02 54° ENE 00:04:45 10° SE night (unlit)
25 Oct - 01:38:43 10° WNW 01:41:31 15° WSW 01:44:13 10° SW night (unlit)
25 Oct - 14:20:51 10° SSW 14:26:40 74° ESE 14:32:38 10° NNE daylight
25 Oct - 16:05:28 10° W 16:09:29 18° NW 16:13:31 10° N daylight
25 Oct - 23:06:54 10° N 23:11:26 27° NE 23:15:38 10° ESE night (unlit)
26 Oct - 00:49:00 10° NW 00:53:36 32° WSW 00:57:49 10° S night (unlit)
26 Oct - 13:33:09 10° S 13:38:29 38° ESE 13:43:56 10° NE daylight
26 Oct - 15:15:30 10° WSW 15:20:44 32° NW 15:26:01 10° N daylight
26 Oct - 22:19:36 10° N 22:22:38 15° NE 22:25:31 10° E visible
27 Oct - 00:00:14 10° NNW 00:05:29 71° WSW 00:10:13 10° SSE night (unlit)
27 Oct - 12:46:26 10° SSE 12:50:28 19° ESE 12:54:33 10° ENE daylight
27 Oct - 14:26:23 10° SW 14:32:10 58° WNW 14:38:03 10° NNE daylight
27 Oct - 16:15:06 10° NW 16:15:36 10° NW 16:16:07 10° NW daylight
27 Oct - 23:11:56 10° NNW 23:17:08 55° ENE 23:21:50 10° SE night (unlit)
28 Oct - 00:55:56 10° WNW 00:58:36 15° WSW 01:01:11 10° SW night (unlit)
28 Oct - 13:37:56 10° SSW 13:43:48 76° ESE 13:49:45 10° NNE daylight
28 Oct - 15:22:39 10° W 15:26:37 18° NW 15:30:36 10° N daylight
28 Oct - 22:24:01 10° N 22:28:32 28° NE 22:32:43 10° ESE visible
29 Oct - 00:06:09 10° NW 00:10:41 32° WSW 00:14:51 10° S night (unlit)
29 Oct - 12:50:13 10° S 12:55:36 39° ESE 13:01:04 10° NE daylight
29 Oct - 14:32:38 10° WSW 14:37:51 32° NW 14:43:06 10° N daylight
29 Oct - 21:36:42 10° N 21:39:44 15° NE 21:42:37 10° E visible
29 Oct - 23:17:21 10° NNW 23:22:33 70° WSW 23:27:15 10° SSE night (unlit)
30 Oct - 12:03:28 10° SSE 12:07:33 20° ESE 12:11:42 10° ENE daylight
30 Oct - 13:43:29 10° SW 13:49:17 58° WNW 13:55:09 10° NNE daylight
30 Oct - 22:29:02 10° NNW 22:34:12 55° ENE 22:38:53 10° SE visible
